Terminal Aerodrome Forecast
Issued by NWS Grand Forks, ND

Home | Current Version | Previous Version | Graphics & Text | Print | Product List | Glossary On
Versions: 1 2 3 4 5 6 7 8 9 10 11 12 13 14 15
000
FTUS43 KFGF 180400 AAA
TAFFAR
TAF AMD
KFAR 180408Z 1804/1824 34012KT P6SM OVC024
     FM180700 35007KT P6SM OVC018
     FM182000 18009KT P6SM SCT020 BKN250=

USA.gov is the U.S. government's official web portal to all federal, state and local government web resources and services.